sat.trackr.live / text

‹ back to catalog

STARLINK-1361

NORAD 45567 · 2020-025AN

PAYLOAD ACTIVE UNKNOWN

§ Identity

Operator
Country
US
Launch date
2020-04-22
Launch site
AFETR
Launch vehicle
Mass (kg)
RCS (m²)

Purposes: comms

External: N2YO · Heavens-Above · Gunter

§ Orbital elements

Epoch: 2026-05-25T03:49:49.326816Z

Period
92.32 min
Inclination
53.0438°
Eccentricity
0.0001439
Mean motion
15.59732047 rev/d
Perigee alt
387.5 km
Apogee alt
389.4 km
Semi-major
6,766.6 km
B*
1.0555e-3
RAAN
64.7545°
Arg perigee
65.2074°
Mean anomaly
294.9087°
Rev number
33,744

§ Raw data

STARLINK-13611 45567U 20025AN  26145.15959869  .00086417  00000+0  10555-2 0  99992 45567  53.0438  64.7545 0001439  65.2074 294.9087 15.59732047337447

JSON: /api/v1/satellites/45567 · /tle

For live sub-satellite position, see the globe view (requires WebGL).

§ Visibility from observer

Set your observer location to see the next 7 days of passes ≥ 10°. The values pass through the URL so the page stays shareable.

No JS? Fill the form by hand. The geolocation button needs JavaScript.